Wind_Speed
9 9 24 22 22 19 17 15 12 16 17 12 12 14 10 13 14 15 18 18 17 20 20 21 22 22 24 26 27 28 28 25 22 28 30 31 25 20 14 7 3 10 20 26
18 10 11 19 17 14 15 15 16 14 14 10 12 12 11 13 14 16 20 19 19 20 22 21 22 22 23 24 25 27 28 26 24 20 22 27 24 28 24 23 16 5 4 19
13 13 12 12 18 17 21 19 14 15 11 12 14 13 12 14 14 16 19 19 19 20 21 22 22 22 23 24 24 24 24 25 25 24 23 21 23 24 24 26 26 22 18 13
9 15 4 10 14 22 20 17 17 13 14 16 15 15 15 14 12 16 17 18 18 18 20 21 21 22 22 22 23 24 23 22 23 23 25 25 24 22 23 25 23 23 22 22
9 13 3 12 15 20 22 20 19 16 17 16 13 13 15 12 11 15 15 16 18 19 19 20 20 20 21 21 21 23 22 22 22 23 24 23 22 23 23 23 23 24 25 23
12 4 6 7 12 15 12 16 17 13 12 9 11 11 10 10 11 13 14 17 18 19 20 21 21 20 20 20 21 22 22 22 24 22 23 23 22 23 23 23 23 23 23 20
10 4 5 7 8 9 8 7 6 7 6 8 11 10 8 7 9 12 14 15 17 19 20 21 22 22 22 20 19 20 21 22 22 24 22 20 22 22 21 23 23 22 21 20
15 6 8 11 12 12 7 6 4 6 7 7 9 7 7 8 9 11 14 15 17 18 19 20 21 21 22 22 20 18 19 19 20 21 23 23 22 20 21 22 21 22 22 20
14 11 11 7 16 12 10 7 6 7 7 7 6 6 7 8 10 12 15 16 17 18 18 19 20 21 21 20 20 18 17 18 19 20 19 20 23 22 21 19 19 19 18 17
13 13 11 12 11 10 9 8 7 6 5 5 5 7 8 9 10 12 14 15 15 15 16 16 17 19 20 21 20 19 18 18 18 18 18 19 18 21 20 19 19 18 18 18
22 18 14 14 12 11 10 8 7 6 5 5 7 9 10 10 9 10 10 11 12 13 14 15 17 19 20 21 22 22 22 21 20 21 22 22 21 20 19 20 22 21 20 19
17 15 17 13 11 12 10 8 7 6 6 7 8 8 9 8 7 7 8 9 10 12 13 15 17 18 20 21 22 25 26 27 28 27 27 27 27 26 24 23 23 23 23 23
11 10 9 12 11 11 10 8 7 6 8 8 6 5 5 4 5 5 7 8 10 11 13 15 16 18 19 20 22 24 25 27 29 29 29 30 30 30 30 31 28 26 25 25
10 8 9 10 10 10 10 9 8 7 7 5 4 2 2 2 3 4 6 7 10 12 13 14 16 17 19 21 23 24 26 27 28 30 31 31 30 30 29 29 29 30 29 28
10 9 10 10 11 12 11 9 7 6 5 3 2 1 0 2 2 3 5 8 9 10 11 12 14 16 17 19 21 23 25 26 28 29 30 31 32 33 32 31 29 27 27 27
9 11 12 12 12 11 8 7 7 5 4 4 3 2 1 0 1 3 5 6 6 8 9 11 12 13 15 17 19 21 22 24 25 26 27 28 29 30 31 32 33 33 32 31
10 12 14 13 10 8 7 7 5 5 5 3 3 3 2 2 1 2 3 3 5 6 7 8 10 12 14 16 17 19 21 22 23 25 26 27 29 29 30 31 32 33 34 35
14 14 13 11 8 7 7 6 7 7 5 5 4 4 4 3 1 1 3 3 4 5 7 8 10 12 14 16 17 19 20 22 23 24 25 26 28 29 30 31 32 32 33 33
12 12 10 9 8 8 7 7 7 6 5 6 6 7 6 4 3 4 6 7 6 8 10 11 12 13 15 16 18 19 21 22 24 25 26 26 27 28 28 30 31 31 32 32
12 11 10 10 9 8 9 8 7 7 6 7 8 8 7 6 6 8 9 10 11 12 15 15 15 16 18 19 21 22 23 24 25 26 27 29 29 30 30 30 30 31 32 33
11 11 12 11 9 9 10 9 8 8 8 9 10 10 9 8 9 11 13 14 15 16 19 20 19 20 21 22 24 24 25 25 26 27 29 30 31 32 32 33 32 32 32 33
11 11 11 10 9 9 11 11 11 11 10 11 13 12 11 11 13 14 15 16 18 19 21 22 23 24 25 26 27 28 28 29 30 31 32 32 33 34 35 35 34 34 33 33
10 10 11 10 10 10 13 14 15 15 14 14 15 15 15 16 17 19 20 19 20 21 23 25 26 27 28 29 30 31 31 32 34 35 35 35 35 35 35 35 35 34 34 33
10 12 12 10 10 11 12 15 18 19 19 19 18 18 18 20 21 22 23 24 24 25 26 27 28 30 31 32 33 34 36 35 36 37 38 38 37 36 36 36 36 35 33 33
12 12 12 11 11 12 15 17 19 20 22 22 22 22 23 23 24 24 25 25 27 28 28 29 30 32 33 34 35 36 36 37 37 37 37 37 37 36 36 36 35 34 34 33
13 13 13 12 12 12 14 16 18 20 22 24 25 26 27 27 28 27 27 29 29 29 30 31 31 32 33 34 35 36 37 37 37 37 37 36 36 36 35 34 34 33 33 33
12 13 14 14 14 15 16 17 18 20 23 25 27 29 29 29 29 29 29 30 30 31 32 32 33 33 34 34 34 35 36 36 36 36 35 35 35 34 34 33 33 33 33 33
Wind_Direction
227 208 206 227 207 200 211 232 233 262 259 259 268 279 292 294 305 322 327 324 329 330 335 336 338 344 348 351 352 357 1 4 5 6 11 14 12 23 32 61 80 252 255 256
224 210 200 205 207 216 235 239 249 248 253 256 260 278 295 302 314 312 320 328 331 331 332 331 335 340 348 350 353 357 359 1 7 8 8 12 19 32 25 45 47 345 277 239
201 205 200 206 222 233 238 240 240 244 260 254 263 287 303 302 308 316 326 334 338 336 335 336 339 342 344 347 350 355 357 359 3 8 13 16 14 20 31 38 37 40 52 65
183 182 210 237 223 225 240 247 245 259 248 247 263 287 297 306 316 317 327 335 340 341 340 341 345 347 347 349 348 349 353 355 0 7 9 11 9 18 17 26 37 46 52 47
179 199 212 229 216 216 221 233 243 252 252 257 270 285 302 320 321 318 329 334 335 336 337 337 342 344 348 354 352 349 347 353 359 1 5 8 9 12 11 13 18 25 32 45
187 170 198 224 207 209 227 242 240 240 246 262 281 288 310 314 308 315 319 323 326 329 332 335 335 338 342 345 348 346 348 355 357 1 0 359 3 5 8 8 12 13 19 24
198 199 236 214 206 190 197 267 230 213 235 258 273 287 295 292 294 306 313 320 324 327 328 329 331 333 335 337 342 339 343 348 352 352 356 358 357 360 2 1 2 3 7 11
211 201 228 216 216 223 244 256 220 239 260 259 261 282 288 294 304 310 317 321 323 324 326 327 330 332 332 333 336 341 339 341 342 345 346 350 353 354 350 351 353 352 351 353
194 216 233 227 232 243 245 244 248 255 248 253 270 280 291 307 313 315 317 322 324 326 328 333 337 338 339 340 344 347 344 341 337 336 338 338 339 344 348 348 344 343 345 347
208 223 225 224 222 222 234 245 258 251 252 271 288 301 307 311 319 319 320 325 332 337 345 349 352 355 355 356 359 358 358 353 349 344 341 338 338 333 335 337 339 341 339 334
225 234 228 225 230 237 244 248 243 242 257 283 300 311 313 318 324 324 330 341 349 357 4 8 11 14 17 15 15 15 18 17 13 5 359 355 350 345 340 337 335 336 335 332
243 265 256 245 241 233 232 223 232 251 276 295 306 309 311 323 335 346 352 3 11 16 19 20 20 21 23 25 28 26 25 27 29 28 23 17 12 6 1 354 349 343 340 338
257 245 214 219 221 221 218 215 223 256 282 295 302 303 312 331 1 10 14 18 23 25 24 23 22 24 23 21 25 24 24 23 23 25 28 28 25 21 16 12 7 359 351 344
246 234 216 207 204 206 207 213 226 249 270 278 282 284 316 7 29 27 23 29 30 26 26 25 24 25 23 19 22 22 21 21 20 18 17 17 19 21 20 18 14 10 8 1
237 224 207 196 193 192 196 214 239 252 253 249 192 197 53 48 42 30 43 34 27 23 24 23 22 23 25 22 22 23 20 20 19 18 16 14 12 11 10 11 12 11 9 5
219 210 198 184 184 190 199 220 233 233 211 181 180 175 158 31 101 63 43 27 20 18 20 20 20 22 26 24 23 23 20 19 18 16 14 11 9 7 5 4 2 1 360 359
183 188 181 180 182 196 212 218 217 202 189 193 194 190 211 206 120 64 22 4 7 14 15 13 12 12 15 14 14 14 11 11 11 10 8 6 5 3 2 1 358 356 355 353
178 175 178 184 199 218 216 198 184 191 202 204 210 221 220 199 187 299 314 314 324 338 347 352 353 358 359 358 358 358 358 357 357 357 357 356 356 357 356 355 354 352 350 348
182 187 192 203 215 225 208 182 193 205 212 221 222 225 224 215 242 275 284 289 302 316 322 324 333 338 340 341 341 342 342 342 342 343 343 343 343 343 344 345 345 345 343 341
191 198 206 214 225 227 201 194 207 216 231 240 235 229 228 235 258 273 280 285 294 303 307 310 315 322 326 327 328 328 329 329 329 330 331 332 332 331 331 332 333 335 335 334
193 199 209 220 231 228 205 200 215 225 241 252 250 244 243 254 269 276 282 288 296 300 300 303 311 313 315 315 315 315 316 317 320 322 324 326 326 326 325 323 323 324 326 326
209 221 227 232 242 237 214 210 223 234 242 255 259 254 251 259 267 273 278 284 291 298 298 300 304 304 306 307 308 308 309 310 312 313 314 315 318 320 320 318 317 317 318 320
224 230 237 244 252 250 232 221 227 237 245 252 260 264 264 267 272 278 282 284 288 293 294 295 297 298 301 302 303 302 303 304 306 307 307 308 309 311 315 314 313 313 313 315
223 232 239 255 266 262 249 234 233 239 245 253 259 264 269 272 276 280 286 290 293 293 293 295 296 297 297 298 298 299 300 302 302 303 304 306 307 307 311 312 312 311 310 311
233 240 250 261 271 267 258 249 244 247 251 255 258 263 268 272 275 280 284 287 289 291 293 294 296 297 297 298 299 299 300 300 301 301 302 302 303 305 308 309 308 308 307 310
245 249 255 262 270 277 271 263 256 254 257 260 262 264 266 270 275 280 284 286 289 291 292 294 295 296 297 298 299 300 300 300 300 300 300 301 302 305 308 308 307 307 307 309
252 254 257 263 269 273 277 276 269 262 260 259 260 264 268 272 276 280 282 285 288 290 292 294 295 297 298 299 299 299 300 300 301 301 301 302 305 307 308 308 308 307 308 309
Height
3057 3057 3058 3059 3059 3063 3066 3067 3067 3068 3068 3067 3066 3066 3066 3064 3063 3060 3056 3052 3049 3043 3039 3035 3030 3024 3018 3011 3005 2998 2992 2985 2979 2972 2965 2958 2951 2941 2932 2926 2922 2922 2921 2924
3055 3056 3057 3058 3058 3061 3063 3063 3063 3065 3065 3063 3062 3062 3062 3060 3059 3056 3052 3048 3045 3040 3036 3032 3027 3022 3016 3010 3004 2998 2992 2986 2979 2974 2968 2961 2954 2945 2939 2929 2924 2921 2919 2919
3051 3052 3054 3055 3054 3056 3058 3060 3061 3061 3060 3060 3059 3058 3059 3058 3056 3053 3049 3045 3041 3037 3033 3028 3024 3019 3014 3009 3003 2998 2992 2986 2980 2975 2969 2962 2957 2949 2942 2936 2930 2926 2919 2916
3047 3049 3052 3048 3049 3052 3056 3057 3058 3056 3055 3055 3056 3056 3056 3055 3052 3049 3046 3042 3038 3035 3031 3026 3021 3016 3011 3007 3001 2997 2992 2987 2981 2976 2970 2965 2959 2951 2947 2942 2938 2935 2930 2923
3043 3044 3045 3044 3045 3048 3050 3053 3053 3053 3051 3052 3053 3053 3052 3050 3048 3045 3043 3040 3036 3033 3029 3024 3020 3015 3010 3006 3001 2995 2991 2986 2980 2975 2970 2967 2963 2957 2950 2945 2942 2936 2931 2930
3040 3040 3041 3041 3043 3045 3048 3049 3049 3050 3049 3048 3049 3048 3048 3047 3045 3042 3040 3037 3034 3031 3027 3022 3017 3013 3008 3005 3000 2995 2989 2983 2978 2974 2970 2966 2963 2958 2954 2950 2943 2941 2934 2929
3036 3038 3038 3039 3041 3043 3047 3049 3045 3046 3048 3048 3046 3046 3045 3044 3042 3040 3038 3035 3032 3028 3024 3020 3015 3010 3005 3002 2999 2994 2988 2983 2978 2971 2969 2967 2963 2957 2954 2948 2945 2938 2935 2931
3035 3037 3037 3036 3039 3041 3042 3041 3043 3044 3045 3044 3043 3043 3043 3041 3039 3037 3035 3032 3029 3025 3021 3017 3013 3008 3002 2998 2995 2992 2987 2982 2978 2974 2966 2962 2960 2958 2952 2947 2941 2936 2934 2933
3030 3030 3030 3032 3034 3036 3038 3039 3040 3041 3041 3041 3041 3041 3040 3039 3037 3034 3031 3029 3026 3022 3019 3015 3011 3005 3000 2995 2990 2988 2985 2981 2976 2972 2969 2965 2956 2953 2949 2949 2947 2942 2939 2936
3026 3026 3028 3030 3032 3033 3035 3036 3037 3038 3038 3038 3038 3038 3037 3036 3034 3032 3029 3026 3023 3020 3017 3013 3009 3005 2999 2994 2990 2985 2982 2979 2975 2972 2968 2964 2961 2956 2952 2949 2945 2943 2939 2940
3021 3023 3025 3026 3028 3030 3032 3033 3034 3035 3035 3036 3035 3035 3033 3032 3031 3029 3027 3024 3022 3019 3016 3012 3008 3004 3000 2995 2990 2985 2981 2977 2974 2969 2965 2961 2958 2954 2951 2948 2945 2944 2942 2941
3018 3020 3022 3023 3025 3027 3029 3030 3031 3031 3032 3033 3033 3032 3030 3029 3028 3026 3025 3023 3021 3018 3015 3012 3008 3004 3001 2997 2992 2987 2981 2977 2973 2969 2965 2961 2957 2953 2951 2947 2944 2940 2937 2934
3015 3016 3017 3020 3022 3024 3026 3028 3029 3029 3029 3030 3030 3029 3028 3027 3026 3025 3024 3022 3020 3018 3015 3012 3009 3005 3001 2997 2993 2989 2984 2979 2973 2970 2967 2962 2959 2955 2950 2945 2942 2940 2937 2933
3012 3013 3015 3018 3020 3021 3024 3025 3027 3027 3027 3027 3027 3027 3026 3026 3025 3024 3023 3022 3020 3017 3015 3013 3010 3006 3002 2998 2993 2989 2985 2981 2977 2971 2966 2963 2960 2956 2952 2950 2944 2940 2938 2935
3008 3010 3013 3015 3017 3020 3022 3023 3024 3024 3024 3024 3025 3025 3025 3025 3025 3024 3023 3021 3019 3017 3016 3013 3010 3007 3003 3000 2995 2991 2986 2982 2978 2974 2970 2965 2960 2955 2952 2949 2948 2944 2940 2937
3006 3008 3010 3012 3015 3017 3019 3020 3021 3022 3022 3023 3023 3024 3024 3024 3024 3023 3022 3021 3020 3018 3015 3013 3010 3007 3004 3000 2996 2992 2989 2984 2980 2976 2973 2969 2965 2961 2956 2951 2946 2942 2939 2935
3004 3007 3008 3011 3013 3015 3017 3018 3018 3019 3020 3021 3022 3022 3022 3022 3022 3022 3022 3021 3019 3017 3015 3013 3010 3007 3003 3000 2996 2993 2989 2985 2981 2977 2973 2969 2965 2961 2956 2952 2947 2942 2937 2931
3003 3005 3008 3010 3012 3014 3015 3015 3016 3018 3018 3019 3020 3020 3021 3021 3021 3021 3020 3020 3018 3016 3014 3012 3009 3006 3002 2999 2996 2992 2988 2985 2981 2977 2973 2969 2965 2960 2956 2951 2947 2942 2936 2931
3003 3005 3007 3009 3010 3011 3012 3012 3014 3015 3016 3018 3018 3019 3019 3019 3019 3019 3018 3017 3016 3014 3012 3010 3007 3004 3001 2997 2994 2991 2987 2983 2979 2975 2971 2967 2962 2958 2955 2950 2946 2941 2936 2932
3002 3004 3005 3007 3008 3009 3009 3010 3012 3013 3014 3015 3016 3016 3017 3017 3017 3016 3016 3014 3012 3011 3008 3006 3003 3000 2998 2994 2991 2987 2984 2980 2976 2972 2968 2964 2960 2955 2951 2947 2942 2938 2933 2928
3001 3002 3004 3005 3006 3006 3006 3007 3009 3011 3012 3013 3013 3013 3013 3013 3013 3013 3011 3010 3009 3007 3005 3002 2999 2997 2994 2991 2988 2984 2980 2976 2972 2968 2964 2959 2955 2951 2946 2941 2937 2932 2928 2923
2998 3000 3001 3002 3003 3003 3003 3004 3006 3008 3009 3009 3010 3010 3009 3009 3009 3008 3007 3006 3003 3002 3000 2997 2994 2991 2988 2985 2981 2978 2974 2969 2966 2962 2958 2953 2949 2944 2940 2935 2930 2926 2921 2917
2995 2997 2998 2999 2999 2999 3000 3000 3002 3004 3005 3005 3005 3005 3005 3005 3004 3003 3002 3000 2998 2995 2994 2991 2988 2985 2981 2978 2974 2971 2967 2963 2958 2954 2950 2946 2942 2937 2932 2927 2923 2919 2915 2910
2993 2994 2995 2996 2995 2996 2996 2996 2997 2998 2999 3000 3000 3000 2999 2999 2998 2996 2995 2994 2991 2989 2986 2983 2980 2977 2974 2970 2967 2963 2958 2955 2951 2946 2941 2937 2933 2928 2924 2919 2914 2910 2906 2901
2990 2991 2992 2992 2992 2991 2991 2991 2991 2992 2993 2994 2993 2993 2993 2992 2991 2990 2988 2986 2983 2981 2978 2975 2972 2968 2965 2961 2957 2953 2950 2945 2941 2937 2932 2928 2924 2919 2915 2910 2906 2901 2897 2893
2986 2987 2987 2987 2987 2986 2986 2986 2985 2985 2986 2986 2986 2985 2984 2983 2982 2981 2980 2977 2974 2972 2969 2966 2963 2959 2955 2951 2947 2943 2939 2935 2931 2927 2923 2919 2914 2910 2906 2902 2897 2892 2889 2885
2982 2982 2982 2982 2981 2981 2981 2980 2979 2978 2977 2977 2977 2976 2975 2974 2973 2972 2970 2968 2965 2962 2960 2957 2953 2950 2946 2942 2938 2934 2930 2925 2921 2917 2913 2909 2905 2901 2897 2893 2888 2884 2880 2876